Location: Three Oaks Observatory
(31.1535°N, 83.5955°W)
Time: 01:03:11
(UTC-05:00)

NO-84 - Pass Details

Date: 25 October 2019
Orbit: 330 x 505 km, 55.0° (Epoch: 13 November)

Event Time Altitude Azimuth Distance (km) Brightness Sun altitude
Exits shadow 06:21:18 47° 253° (WSW) 669 ? -18.4°
Maximum altitude 06:21:40 49° 234° (SW) 651 ? -18.3°
Drops below altitude 10° 06:25:18 10° 159° (SSE) 1,663 ? -17.5°
Sets 06:27:28 0° 153° (SSE) 2,516 ? -17.0°
